[[{"header":{"parameterUnit":"m.s-1","parameterCategory":1,"la1":30.2991,"la2":30.254,"lo1":-89.0895,"lo2":-89.0444,"dy":0.0017,"dx":0.0017,"nx":28,"ny":28,"refTime":"2023-09-15T09:00:00:Z","depth":0,"parameterNumber":2,"parameterNumberName":"U-component_of_WINDS"},"data":[0,0,0,0,0,0,0,0,0,0,0,0,0,0,0,0,0,0,0,0,0,0,0,0,0,0,0,0,0,0,0,0,0,0,0,0,0,0,0,0,0,0,0,0,0,0,0,0,0,0,0,0,0,0,0,0,0,0,3.2617,3.262,0,3.2906,3.291,3.2913,3.2986,3.2985,3.2983,3.2981,3.3275,3.3284,3.3294,0,0,0,0,0,0,0,0,0,0,0,0,0,3.2124,3.2133,3.2617,3.262,3.2624,3.2906,3.291,3.2914,3.2987,3.2984,3.2982,3.298,3.3272,3.3283,3.3295,0,0,0,0,0,0,0,0,0,0,0,0,0,3.2368,3.2136,3.2616,3.2694,3.2704,3.2905,3.291,3.2915,3.2987,3.2984,3.2982,3.2979,3.3268,3.3282,3.3296,3.3439,0,0,3.334,3.3346,0,0,0,0,0,0,0,0,3.2354,3.2386,3.2679,3.2689,3.2701,3.2908,3.2844,3.3091,3.2988,3.288,3.2981,3.2978,3.3155,3.3178,3.3239,3.3453,3.3466,3.3341,3.335,3.3356,3.336,0,0,0,0,0,0,0,3.2337,3.2374,3.2731,3.2683,3.2697,3.2714,3.2746,3.2891,3.3029,3.2889,3.2895,3.2928,3.316,3.3225,3.3246,3.347,3.3341,3.3353,3.3362,3.3368,3.3816,3.3819,0,0,0,0,0,0,3.2307,3.236,3.2722,3.274,3.2517,3.2725,3.2761,3.2844,3.3028,3.3053,3.293,3.2931,3.3202,3.3229,3.3257,3.3436,3.3356,3.3369,3.3377,3.3812,3.3816,3.382,0,0,0,0,0,0,3.2296,3.2339,3.271,3.2552,3.26,3.2737,3.2829,3.2851,3.2916,3.3059,3.3084,3.2971,3.32,3.3236,3.3393,3.3447,3.3376,3.3389,3.3808,3.3813,3.3818,3.3796,0,0,0,0,0,0,3.2282,3.2335,3.2391,3.2552,3.2609,3.2843,3.2833,3.2859,3.294,3.2943,3.3104,3.3128,3.3201,3.3372,3.3407,3.3466,3.34,3.3804,3.3811,3.3816,3.3792,3.3799,3.3806,0,0,0,0,0,3.2264,3.2373,3.2394,3.2437,3.2682,3.2846,3.2878,3.2961,3.2944,3.3002,3.3094,3.3122,3.3435,3.3387,3.3428,3.3491,3.3801,3.3809,3.3816,3.3789,3.3798,3.3805,0,0,0,0,0,0,3.2214,3.2395,3.242,3.2585,3.2699,3.2858,3.2933,3.2968,3.3089,3.3087,3.3184,3.3219,3.337,3.3446,3.3389,3.3639,3.3618,3.3634,3.3584,3.3593,3.36,3.3578,3.3412,0,0,0,0,0,3.2222,3.2341,3.2493,3.2623,3.2679,3.2796,3.2871,3.2925,3.3047,3.3096,3.3199,3.3316,3.3441,3.3521,3.3644,3.3803,3.3839,3.3867,3.3874,3.3878,3.3891,3.3981,3.3995,3.3844,3.3844,3.3844,0,0,3.224,3.2354,3.2423,3.2616,3.2711,3.2831,3.2836,3.2963,3.3053,3.3115,3.327,3.3349,3.3486,3.3645,3.372,3.3713,3.3941,3.3888,3.389,3.3901,3.399,3.4004,3.4017,3.3849,3.3848,3.3848,0,0,3.2334,3.2432,3.2551,3.2646,3.2791,3.2868,3.2896,3.305,3.3105,3.3262,3.3311,3.3418,3.3631,3.3727,3.3803,3.3932,3.3963,3.3969,3.4004,3.409,3.4102,3.4113,3.4159,3.4175,3.3982,3.3982,3.3982,0,3.2338,3.2522,3.2608,3.2733,3.2816,3.2878,3.2999,3.3087,3.3263,3.3319,3.3309,3.3577,3.3674,3.3855,3.3887,3.3946,3.3981,3.3952,3.4093,3.4105,3.4117,3.4162,3.4179,3.3981,3.3981,3.3981,3.3981,0,3.2519,3.2645,3.2724,3.2894,3.2986,3.3108,3.3212,3.3295,3.334,3.3417,3.3576,3.3694,3.3841,3.3888,3.3934,3.4076,3.4068,3.4074,3.4055,3.413,3.4174,3.4192,3.3981,3.3981,3.3981,3.3981,0,0,3.2591,3.2806,3.2834,3.2911,3.3074,3.3173,3.3297,3.3443,3.3511,3.363,3.3737,3.3915,3.3922,3.4009,3.4065,3.4141,3.4235,3.4139,3.4143,3.4153,3.44,3.4394,3.4413,3.4256,3.426,3.4263,3.4388,0,3.2706,3.2931,3.3012,3.3197,3.3315,3.3374,3.3483,3.3594,3.3669,3.3779,3.3862,3.3987,3.3987,3.4039,3.4117,3.4207,3.4286,3.4199,3.4356,3.4361,3.4321,3.4436,3.4431,3.4543,3.4406,3.4409,3.4411,0,3.287,3.2992,3.3189,3.3337,3.3389,3.3485,3.3624,3.3729,3.3855,3.3905,3.4001,3.4052,3.4184,3.4156,3.4338,3.4277,3.4345,3.4399,3.4406,3.4424,3.4391,3.4457,3.4581,3.4598,3.4439,3.4437,3.4435,0,3.2903,3.3116,3.3262,3.3326,3.3502,3.3568,3.3644,3.3769,3.385,3.3971,3.4025,3.4159,3.4233,3.4335,3.442,3.4392,3.4595,3.4574,3.4639,3.4637,3.468,3.4676,3.4817,3.4723,3.4722,3.4722,3.4722,0,3.3024,3.3142,3.3279,3.3368,3.3502,3.3593,3.3723,3.3803,3.3912,3.4018,3.4076,3.4174,3.4281,3.4392,3.446,3.46,3.4633,3.4676,3.4693,3.4671,3.4666,3.4718,3.4713,3.4727,3.4726,3.4725,3.4724,0,3.3084,3.318,3.3343,3.3496,3.3537,3.3629,3.376,3.3848,3.3925,3.4058,3.4094,3.4215,3.4349,3.4444,3.4616,3.4662,3.4813,3.4829,3.477,3.4779,3.4839,3.4832,3.5018,3.5048,3.4933,3.4934,3.4935,0,3.3155,3.3247,3.341,3.3485,3.3561,3.3681,3.3765,3.3857,3.3942,3.4092,3.4163,3.43,3.4416,3.4626,3.4729,3.4861,3.4881,3.4937,3.4901,3.4876,3.4882,3.4876,3.4885,3.4942,3.4943,3.4944,3.4944,0,3.327,3.3313,3.3432,3.3567,3.3665,3.3776,3.3888,3.3945,3.4057,3.4149,3.4286,3.4376,3.4551,3.4687,3.4829,3.4906,3.4944,3.4955,3.4977,3.4956,3.4919,3.494,3.4785,3.495,3.495,3.4949,3.4949,3.4949,3.3339,3.3424,3.3552,3.3681,3.3775,3.3877,3.3968,3.4056,3.4173,3.4323,3.437,3.4513,3.4636,3.483,3.4909,3.5022,3.5019,3.5051,3.5059,3.5066,3.5065,3.49,3.5048,3.5048,3.5048,3.5048,3.5048,0,3.3459,3.3543,3.3662,3.3816,3.3917,3.3944,3.4068,3.4151,3.4276,3.4388,3.45,3.4658,3.4789,3.4902,3.5038,3.5106,3.5127,3.5139,3.5136,3.5153,3.506,3.5027,3.512,3.512,3.512,3.512,3.512,3.512,3.3533,3.3677,3.3735,3.3926,3.401,3.415,3.4219,3.4313,3.4403,3.4577,3.4687,3.4759,3.4872,3.5016,3.5138,3.5168,3.5215,3.5223,3.5257,3.5168,3.5159,3.5151,3.5121,3.5233,3.5233,3.5341,3.5342,3.5343]},{"header":{"parameterUnit":"m.s-1","parameterCategory":1,"la1":30.2991,"la2":30.254,"lo1":-89.0895,"lo2":-89.0444,"dy":0.0017,"dx":0.0017,"nx":28,"ny":28,"refTime":"2023-09-15T09:00:00:Z","depth":0,"parameterNumber":3,"parameterNumberName":"V-component_of_WINDS"},"data":[0,0,0,0,0,0,0,0,0,0,0,0,0,0,0,0,0,0,0,0,0,0,0,0,0,0,0,0,0,0,0,0,0,0,0,0,0,0,0,0,0,0,0,0,0,0,0,0,0,0,0,0,0,0,0,0,0,0,0.1493,0.1494,0,0.1538,0.1538,0.1539,0.158,0.1581,0.1581,0.1582,0.1631,0.1632,0.1632,0,0,0,0,0,0,0,0,0,0,0,0,0,0.1447,0.1448,0.1493,0.1494,0.1494,0.1538,0.1538,0.1539,0.158,0.1581,0.1582,0.1582,0.163,0.1631,0.1632,0,0,0,0,0,0,0,0,0,0,0,0,0,0.1477,0.1448,0.1493,0.152,0.1523,0.1537,0.1538,0.1539,0.158,0.1581,0.1582,0.1582,0.163,0.1631,0.1633,0.1625,0,0,0.1636,0.1637,0,0,0,0,0,0,0,0,0.1475,0.1479,0.1516,0.1518,0.1522,0.1554,0.154,0.1568,0.158,0.1559,0.1582,0.1583,0.1605,0.1608,0.1615,0.1627,0.1629,0.1636,0.1637,0.1638,0.1638,0,0,0,0,0,0,0,0.1473,0.1477,0.1511,0.1516,0.152,0.1531,0.1536,0.1545,0.1577,0.1561,0.1564,0.1568,0.1607,0.1614,0.1616,0.163,0.1636,0.1638,0.1638,0.1639,0.1639,0.1638,0,0,0,0,0,0,0.1467,0.1475,0.151,0.1512,0.15,0.1531,0.1537,0.1543,0.1577,0.1583,0.1567,0.157,0.1611,0.1615,0.1618,0.1612,0.1638,0.1639,0.164,0.164,0.1639,0.1638,0,0,0,0,0,0,0.1466,0.1469,0.1508,0.1495,0.15,0.1531,0.1538,0.1544,0.1551,0.1582,0.1588,0.1569,0.1612,0.1617,0.1623,0.1615,0.1639,0.1641,0.1641,0.164,0.1639,0.16,0,0,0,0,0,0,0.1464,0.1469,0.1465,0.1494,0.1501,0.1511,0.1537,0.1544,0.1552,0.1556,0.1585,0.1591,0.1613,0.1621,0.1624,0.1617,0.1642,0.1642,0.164,0.1639,0.1602,0.1598,0.1594,0,0,0,0,0,0.1462,0.1453,0.1465,0.1469,0.1497,0.151,0.1514,0.1539,0.1551,0.1549,0.1569,0.159,0.1615,0.1621,0.1625,0.1618,0.1642,0.1641,0.1639,0.1604,0.1598,0.1594,0,0,0,0,0,0,0.1424,0.1458,0.1471,0.1471,0.1487,0.1517,0.1515,0.1532,0.1546,0.1549,0.158,0.1587,0.159,0.1605,0.1611,0.1613,0.1631,0.163,0.1603,0.1598,0.1594,0.1591,0.1643,0,0,0,0,0,0.1415,0.1422,0.1451,0.1448,0.1456,0.1483,0.149,0.1508,0.1526,0.1534,0.1555,0.1573,0.1585,0.1592,0.1605,0.1604,0.1612,0.1601,0.1597,0.1593,0.1593,0.1594,0.159,0.1633,0.1633,0.1633,0,0,0.1398,0.1417,0.142,0.1441,0.1456,0.1463,0.1489,0.1495,0.1502,0.1535,0.1542,0.1558,0.1581,0.1583,0.1585,0.1596,0.1583,0.1591,0.1588,0.159,0.1592,0.1588,0.1585,0.1632,0.1632,0.1632,0,0,0.137,0.1385,0.1384,0.1398,0.142,0.1438,0.1438,0.1465,0.1476,0.1484,0.1509,0.1517,0.1537,0.1552,0.1563,0.154,0.156,0.1543,0.1522,0.1523,0.152,0.1517,0.151,0.1507,0.1542,0.1542,0.1542,0,0.1346,0.1357,0.1382,0.1387,0.1396,0.1425,0.1426,0.1438,0.1463,0.1469,0.148,0.1506,0.1523,0.153,0.1524,0.1531,0.1533,0.1541,0.1518,0.1516,0.1513,0.1507,0.1505,0.154,0.154,0.154,0.1541,0,0.1327,0.1334,0.1331,0.1354,0.1362,0.1365,0.1391,0.1397,0.1414,0.1432,0.1439,0.1461,0.1478,0.1481,0.1498,0.1491,0.1497,0.1512,0.1532,0.1507,0.1502,0.15,0.1537,0.1538,0.1538,0.1539,0,0,0.1278,0.1313,0.1312,0.1322,0.1348,0.1355,0.1359,0.1375,0.138,0.1396,0.1401,0.1417,0.1432,0.1443,0.1462,0.1463,0.1445,0.1478,0.1479,0.1472,0.144,0.1429,0.1425,0.1457,0.1457,0.1457,0.1438,0,0.1255,0.1263,0.1286,0.1288,0.1295,0.1323,0.1327,0.1343,0.136,0.1369,0.1388,0.1399,0.1417,0.1424,0.1426,0.1446,0.1439,0.1448,0.1464,0.1464,0.1459,0.1423,0.1411,0.1393,0.1436,0.1436,0.1436,0,0.1231,0.1244,0.1246,0.1271,0.1275,0.1278,0.1295,0.1303,0.1323,0.1335,0.1348,0.1368,0.1375,0.1392,0.1403,0.1409,0.1416,0.1427,0.1427,0.1431,0.1449,0.1427,0.1387,0.1385,0.1432,0.1433,0.1433,0,0.1196,0.1214,0.1218,0.1226,0.1255,0.1257,0.1269,0.129,0.1298,0.1313,0.1319,0.1335,0.1345,0.1357,0.1382,0.1391,0.139,0.1409,0.1402,0.1401,0.1402,0.1402,0.1364,0.1404,0.1404,0.1404,0.1404,0,0.1169,0.117,0.1203,0.1205,0.1207,0.1233,0.1234,0.125,0.1267,0.1274,0.1299,0.1305,0.1337,0.1347,0.1366,0.1373,0.1377,0.1388,0.1393,0.1386,0.1385,0.1393,0.1395,0.1404,0.1404,0.1404,0.1404,0,0.1131,0.1153,0.1159,0.1186,0.1193,0.1193,0.1217,0.1221,0.1238,0.1247,0.125,0.1278,0.1291,0.1317,0.1337,0.135,0.1353,0.1362,0.1346,0.135,0.1342,0.1343,0.131,0.1307,0.1347,0.1347,0.1346,0,0.1114,0.1115,0.1141,0.1147,0.1158,0.1167,0.1176,0.1201,0.1209,0.1232,0.1233,0.1248,0.1261,0.1281,0.1304,0.132,0.133,0.1318,0.1333,0.1326,0.1332,0.1332,0.1333,0.1315,0.1314,0.1314,0.1313,0,0.108,0.1091,0.1102,0.1116,0.1125,0.1138,0.1152,0.1156,0.1185,0.1193,0.1206,0.1216,0.1237,0.1252,0.1271,0.1285,0.1305,0.1308,0.1307,0.1301,0.1293,0.1298,0.1338,0.1309,0.1309,0.131,0.131,0.131,0.1053,0.1055,0.1074,0.1086,0.1099,0.1111,0.1117,0.1134,0.1145,0.1163,0.1178,0.119,0.121,0.1238,0.1251,0.1262,0.1271,0.127,0.127,0.1269,0.1267,0.1289,0.1265,0.1265,0.1265,0.1265,0.1266,0,0.1022,0.1035,0.1045,0.1064,0.1073,0.1088,0.1105,0.1112,0.1122,0.1139,0.1151,0.1166,0.1181,0.1204,0.1221,0.1225,0.1235,0.1229,0.123,0.1233,0.1257,0.1257,0.1221,0.1221,0.1221,0.1221,0.1221,0.1221,0.1007,0.1012,0.1025,0.1037,0.1051,0.1062,0.107,0.1082,0.1096,0.1112,0.1123,0.1138,0.1158,0.1176,0.1191,0.1197,0.1203,0.1195,0.1204,0.1227,0.1231,0.1235,0.1235,0.1195,0.1195,0.118,0.1179,0.1179]}]]